Overview Statistics Trail Chart Weather Telemetry Raw packets
 

This is the latest recevied weather packets stored in our database for station/object KQ4KX. If no packets are shown the sender has not sent any weather packets the latest 10 day(s).

<< 98 99 100 101 102 103 104 >>
Time Temp. Humidity Pressure Rain* Wind** Luminosity Snow
1787849678 32.22° C 72% 1017.2 hPa 0 mm - - -
1787849510 32.22° C 73% 1017.3 hPa 0 mm - - -
1787849347 32.22° C 73% 1017.3 hPa 0 mm - - -
1787849048 32.22° C 73% 1017.3 hPa 0 mm - - -
1787848246 31.67° C 74% 1017.6 hPa 0 mm - - -
1787848125 31.67° C 74% 1017.6 hPa 0 mm - - -
1787847817 31.67° C 75% 1017.6 hPa 0 mm - - -
1787847729 31.67° C 75% 1017.6 hPa 0 mm - - -
1787847517 31.67° C 75% 1017.6 hPa 0 mm - - -
1787846917 31.67° C 77% 1017.7 hPa 0 mm - - -
1787846724 31.67° C 76% 1017.8 hPa 0 mm - - -
1787846588 31.67° C 76% 1017.8 hPa 0 mm - - -
1787846287 31.11° C 77% 1017.9 hPa 0 mm - - -
1787845297 31.11° C 79% 1017.8 hPa 0 mm - - -
1787844967 30.56° C 80% 1017.7 hPa 0 mm - - -
1787844637 30° C 83% 1017.6 hPa 0 mm - - -
1787844432 30° C 83% 1017.7 hPa 0 mm - - -
1787844337 30° C 83% 1017.7 hPa 0 mm - - -
1787844037 29.44° C 85% 1017.7 hPa 0 mm - - -
1787843802 29.44° C 83% 1017.7 hPa 0 mm - - -
1787843737 29.44° C 83% 1017.7 hPa 0 mm - - -
1787843408 30° C 84% 1017.6 hPa 0 mm - - -
1787842565 29.44° C 84% 1017.8 hPa 0 mm - - -
1787842477 29.44° C 84% 1017.8 hPa 0 mm - - -
1787842177 29.44° C 86% 1017.7 hPa 0 mm - - -

* Rain latest hour (hover to see other rain measurements)
** Current wind speed in m/s (hover to see current wind gust speed)